Volver al catálogo

METEOR 1-23

ActivoMeteoPO
NORAD 8519·PAYLOAD·🇷🇺 Russia

Lanzado Dec 25, 1975 desde Plesetsk Cosmodrome

Loading…

Próximos Pases (próximas 24 horas)

TLE

ActualizadoSource: Space-Track

Época: Sep 14, 2026, 08:13 UTC

1 08519U 75124A   26257.34264478  .00000100  00000-0  48099-4 0  9997
2 08519  81.2445  37.4688 0014528  72.6781 287.5978 14.11404489609463

Sigue METEOR 1-23 en tiempo real con AllMySat

Download on the App Store